TimeCDT,TemperatureF,Dew PointF,Humidity,Sea Level PressureIn,VisibilityMPH,Wind Direction,Wind SpeedMPH,Gust SpeedMPH,PrecipitationIn,Events,Conditions,WindDirDegrees,DateUTC
12:52 AM,64.0,62.1,93,29.76,10.0,South,3.5,-,N/A,,Scattered Clouds,180,2013-05-21 05:52:00
1:52 AM,62.1,60.1,93,29.75,4.0,Calm,Calm,-,N/A,,Clear,0,2013-05-21 06:52:00
1:55 AM,62.6,60.8,94,29.78,1.2,Calm,Calm,-,N/A,,Clear,0,2013-05-21 06:55:00
2:00 AM,62.6,60.8,94,29.77,0.8,Calm,Calm,-,N/A,,Clear,0,2013-05-21 07:00:00
2:06 AM,60.8,59.0,94,29.77,0.8,Calm,Calm,-,N/A,,Mist,0,2013-05-21 07:06:00
2:52 AM,63.0,61.0,93,29.76,0.8,WNW,6.9,-,N/A,,Overcast,300,2013-05-21 07:52:00
2:55 AM,62.6,62.6,100,29.78,1.5,NW,6.9,-,N/A,,Mostly Cloudy,310,2013-05-21 07:55:00
2:57 AM,62.6,62.6,100,29.78,3.0,NW,5.8,-,N/A,,Mostly Cloudy,320,2013-05-21 07:57:00
3:03 AM,62.6,62.6,100,29.79,7.0,NW,5.8,-,N/A,,Mostly Cloudy,310,2013-05-21 08:03:00
3:12 AM,62.6,62.6,100,29.79,8.0,NW,5.8,-,N/A,,Scattered Clouds,310,2013-05-21 08:12:00
3:52 AM,62.1,55.0,78,29.76,10.0,NW,6.9,-,N/A,,Clear,320,2013-05-21 08:52:00
4:52 AM,61.0,51.1,70,29.76,10.0,NW,8.1,-,N/A,,Clear,320,2013-05-21 09:52:00
5:52 AM,55.9,53.1,90,29.79,10.0,Calm,Calm,-,N/A,,Clear,0,2013-05-21 10:52:00
6:52 AM,55.0,53.1,93,29.82,10.0,Calm,Calm,-,N/A,,Clear,0,2013-05-21 11:52:00
7:52 AM,60.1,55.0,83,29.83,10.0,Calm,Calm,-,N/A,,Clear,0,2013-05-21 12:52:00
8:52 AM,61.0,57.0,87,29.83,10.0,Calm,Calm,-,N/A,,Clear,0,2013-05-21 13:52:00
9:52 AM,63.0,54.0,72,29.82,10.0,NNW,4.6,-,N/A,,Clear,340,2013-05-21 14:52:00
10:52 AM,64.0,54.0,70,29.83,10.0,Calm,Calm,-,N/A,,Clear,0,2013-05-21 15:52:00
11:52 AM,64.0,55.0,73,29.84,10.0,South,4.6,-,N/A,,Clear,190,2013-05-21 16:52:00
12:52 PM,66.0,55.9,70,29.82,10.0,SSW,6.9,-,N/A,,Clear,210,2013-05-21 17:52:00
1:52 PM,66.9,55.9,68,29.81,10.0,West,4.6,-,N/A,,Clear,280,2013-05-21 18:52:00
2:52 PM,66.9,55.9,68,29.86,10.0,WSW,12.7,-,N/A,,Partly Cloudy,240,2013-05-21 19:52:00
3:52 PM,64.9,57.0,75,29.76,10.0,SE,4.6,-,0.00,,Clear,130,2013-05-21 20:52:00
4:52 PM,64.0,57.9,80,29.76,10.0,SSW,4.6,-,N/A,,Clear,210,2013-05-21 21:52:00
5:52 PM,64.0,57.9,80,29.74,10.0,SSW,3.5,-,N/A,,Clear,200,2013-05-21 22:52:00
6:52 PM,64.0,57.0,78,29.74,10.0,SSW,3.5,-,N/A,,Clear,210,2013-05-21 23:52:00
7:52 PM,63.0,57.0,81,29.73,10.0,WSW,4.6,-,N/A,,Clear,250,2013-05-22 00:52:00
8:52 PM,60.1,55.9,86,29.76,10.0,SW,3.5,-,N/A,,Clear,230,2013-05-22 01:52:00
9:52 PM,59.0,55.9,90,29.79,10.0,SSW,4.6,-,N/A,,Clear,210,2013-05-22 02:52:00
10:52 PM,60.1,57.0,90,29.80,10.0,South,3.5,-,N/A,,Partly Cloudy,190,2013-05-22 03:52:00
11:52 PM,59.0,55.9,90,29.80,10.0,Calm,Calm,-,N/A,,Clear,0,2013-05-22 04:52:00